Torna al catalogo

ION-SCV-021

AttivoComunicazioniSSO
NORAD 67483·PAYLOAD·🇮🇹 Italy

Lanciato Nov 28, 2025 da Vandenberg Space Force Base

Loading…

Prossimi Passaggi (prossime 24 ore)

TLE

AggiornatoSource: Space-Track

Epoca: Sep 14, 2026, 15:04 UTC

1 67483U 25276ED  26257.62843884  .00000303  00000-0  30334-4 0  9998
2 67483  97.5173 324.8139 0009970 166.9141 193.2343 14.98060567 35992

Traccia ION-SCV-021 in tempo reale con AllMySat

Download on the App Store